This demonstration page uses our WeatherBlox Daily Observations layout. Learn more.

Left ArrowRight Arrow

53.62937, 11.41316

Hourly Observations for July 14, 2016

Temp ( °F °C ) Dew Point ( °F °C ) Humidity (%) Winds ( mph kmh ) Pressure ( in mb ) Visibility ( mi km ) Precip ( " mm )
6:20 am 06:20 Mostly Cloudy 54 12 54 12 100 100 VRB 2 4 29.94 1014 30 48 N/A
6:50 am 06:50 Mostly Cloudy 54 12 54 12 100 100 VRB 1 2 29.94 1014 30 48 N/A
7:20 am 07:20 Mostly Cloudy 55 13 55 13 100 100 W 5 7 29.94 1014 30 48 N/A
7:50 am 07:50 Mostly Cloudy 55 13 55 13 100 100 WNW 3 6 29.94 1014 30 48 N/A
8:20 am 08:20 Partly Cloudy 57 14 54 12 88 88 WNW 6 9 29.94 1014 30 48 N/A
8:50 am 08:50 Partly Cloudy 57 14 54 12 88 88 WNW 7 11 29.94 1014 30 48 N/A
9:20 am 09:20 Partly Cloudy 59 15 54 12 82 82 WNW 7 11 29.94 1014 30 48 N/A
9:50 am 09:50 Mostly Cloudy 61 16 52 11 72 72 NW 7 11 29.94 1014 30 48 N/A
10:20 am 10:20 Partly Cloudy 61 16 50 10 68 68 NW 9 15 29.94 1014 30 48 N/A
10:50 am 10:50 Mostly Cloudy 61 16 48 9 63 63 WNW 10 17 29.94 1014 30 48 N/A
11:20 am 11:20 Partly Cloudy 61 16 48 9 63 63 WNW 8 13 29.94 1014 30 48 N/A
11:50 am 11:50 Partly Cloudy 63 17 50 10 64 64 WNW 8 13 29.94 1014 30 48 N/A
12:20 pm 12:20 Partly Cloudy 63 17 50 10 64 64 WNW 9 15 29.94 1014 30 48 N/A
12:50 pm 12:50 Partly Cloudy 64 18 48 9 56 56 WNW 10 17 29.94 1014 30 48 N/A
1:20 pm 13:20 Mostly Cloudy 64 18 50 10 60 60 WNW 10 17 29.94 1014 30 48 N/A
1:50 pm 13:50 Mostly Cloudy 64 18 50 10 60 60 W 13 20 29.94 1014 30 48 N/A
2:20 pm 14:20 Mostly Cloudy 66 19 50 10 56 56 W 14 22 29.91 1013 30 48 N/A
2:50 pm 14:50 Mostly Cloudy 66 19 46 8 49 49 W 10 17 29.94 1014 30 48 N/A
3:20 pm 15:20 Mostly Cloudy 66 19 50 10 56 56 W 10 17 29.91 1013 30 48 N/A
3:50 pm 15:50 Mostly Cloudy 66 19 50 10 56 56 W 12 19 29.91 1013 30 48 N/A
4:20 pm 16:20 Mostly Cloudy 66 19 50 10 56 56 W 14 22 29.91 1013 30 48 N/A
4:50 pm 16:50 Mostly Cloudy 66 19 52 11 60 60 W 14 22 29.91 1013 30 48 N/A
5:20 pm 17:20 Mostly Cloudy 66 19 52 11 60 60 W 14 22 29.91 1013 30 48 N/A
5:50 pm 17:50 Mostly Cloudy 64 18 52 11 64 64 W 16 26 29.91 1013 30 48 N/A
6:20 pm 18:20 Mostly Cloudy 63 17 54 12 73 73 W 17 28 29.91 1013 30 48 N/A
6:50 pm 18:50 Mostly Cloudy 61 16 54 12 77 77 W 14 22 29.91 1013 30 48 N/A

Powered by AerisWeather